Location: Moscow
(55.7500°N, 37.5830°E)
Time: 16:57:13
(UTC+03:00)

Vanguard 1 Rocket - Pass Details

Date: 02 July 2022
Orbit: 651 x 4224 km, 34.3° (Epoch: 16 August)

Event Time Altitude Azimuth Distance (km) Brightness Sun altitude
Rises 23:08:29 0° 245° (WSW) 5,017 11.1 -9.2°
Reaches altitude 10° 23:15:27 10° 213° (SSW) 3,136 9.8 -9.5°
Maximum altitude 23:17:05 11° 200° (SSW) 2,878 9.5 -9.6°
Drops below altitude 10° 23:18:35 10° 187° (S) 2,767 9.3 -9.6°
Enters shadow 23:18:54 10° 184° (S) 2,760 9.3 -9.7°
